Regional Weather Roundup
Issued by NWS

Home | Current Version | Previous Version | Graphics & Text | Print | Product List | Glossary On
Versions: 1 2 3 4 5 6 7 8 9 10 11 12 13 14 15 16 17 18 19 20 21 22 23 24 25 26 27 28 29 30 31 32 33 34 35 36 37 38 39 40 41 42 43 44 45 46 47 48 49 50
000
ASUS43 KMKX 010621
RWRWI

WISCONSIN REGIONAL WEATHER ROUNDUP
NATIONAL WEATHER SERVICE MILWAUKEE/SULLIVAN WI
100 AM CDT SAT OCT 01 2016

NOTE: "FAIR" INDICATES FEW OR NO CLOUDS BELOW 12,000 FEET WITH NO
SIGNIFICANT WEATHER AND/OR OBSTRUCTIONS TO VISIBILITY.

WIZ001-002-006>008-014>016-023>028-010700-
NORTHWEST WISCONSIN

CITY           SKY/WX    TMP DP  RH WIND       PRES   REMARKS
SUPERIOR ARPT  CLOUDY    52  51  97 NE7       30.27S
6HR MIN TEMP:  52; 6HR MAX TEMP:  54;

ASHLAND        FOG       53  53 100 E9        30.26F VSB 3/4
6HR MIN TEMP:  52; 6HR MAX TEMP:  53;

HAYWARD        CLEAR     49  48  97 N3        30.24F
6HR MIN TEMP:  47; 6HR MAX TEMP:  56;

SIREN          CLEAR     51  50  97 CALM      30.24F
6HR MIN TEMP:  51; 6HR MAX TEMP:  61;

CUMBERLAND     CLEAR     52  50  93 N5        30.23S
RICE LAKE      CLEAR     53  51  92 N5        30.23F
6HR MIN TEMP:  53; 6HR MAX TEMP:  62;

CHETEK         NOT AVBL
LADYSMITH      CLEAR     54  51  90 NE5       30.23F
6HR MIN TEMP:  54; 6HR MAX TEMP:  63;

EAU CLAIRE     CLOUDY    57  54  89 N5        30.19S
6HR MIN TEMP:  56; 6HR MAX TEMP:  65;

MENOMONIE      CLEAR     56  53  90 N7        30.20S
6HR MIN TEMP:  56; 6HR MAX TEMP:  69;

NEW RICHMOND   CLEAR     53  52  97 NE3       30.22S
6HR MIN TEMP:  53; 6HR MAX TEMP:  63;

OSCEOLA        CLEAR     55  55 100 CALM      30.24F
6HR MIN TEMP:  55; 6HR MAX TEMP:  64;

$$

WIZ003>005-009-010-017-018-010700-
NORTH CENTRAL WISCONSIN

CITY           SKY/WX    TMP DP  RH WIND       PRES   REMARKS
MANITOWISH WTR NOT AVBL
ARBOR VITAE    CLEAR     55  50  85 CALM      30.24F
6HR MIN TEMP:  55; 6HR MAX TEMP:  62;

WOODRUFF       CLEAR     55  50  85 CALM      30.24F
6HR MIN TEMP:  55; 6HR MAX TEMP:  62;

RHINELANDER    CLEAR     53  50  89 E7        30.23F
6HR MIN TEMP:  53; 6HR MAX TEMP:  63;

EAGLE RIVER    CLEAR     55  47  75 E7        30.23F
6HR MIN TEMP:  52; 6HR MAX TEMP:  61;

LAND O LAKES   CLEAR     48  47  96 CALM      30.26F
6HR MIN TEMP:  48; 6HR MAX TEMP:  59;

PHILLIPS       PTCLDY    51  50  99 N3        30.23S
6HR MIN TEMP:  50; 6HR MAX TEMP:  63;

TOMAHAWK       PTCLDY    52  49  87 NE5       30.23S
6HR MIN TEMP:  52; 6HR MAX TEMP:  62;

MEDFORD        CLEAR     51  51  99 NE5       30.20S
6HR MIN TEMP:  51; 6HR MAX TEMP:  60;

MERRILL        PTCLDY    53  51  92 NE5       30.22S
6HR MIN TEMP:  53; 6HR MAX TEMP:  64;

$$

WIZ029-030-035-036-043>047-010700-
CENTRAL WISCONSIN

CITY           SKY/WX    TMP DP  RH WIND       PRES   REMARKS
WAUSAU         CLOUDY    57  50  77 NE6       30.18F
6HR MIN TEMP:  57; 6HR MAX TEMP:  64;

MOSINEE        CLOUDY    55  52  88 NE10      30.19S
MARSHFIELD     CLOUDY    60  51  72 E7        30.17F
6HR MIN TEMP:  60; 6HR MAX TEMP:  64;

STEVENS POINT  CLOUDY    57  51  79 NE8       30.17F
6HR MIN TEMP:  57; 6HR MAX TEMP:  60;

WAUPACA        CLOUDY    60  59  96 NE6       30.16S
6HR MIN TEMP:  59; 6HR MAX TEMP:  62;

WAUTOMA        CLOUDY    58  57  97 NE7       30.15F
6HR MIN TEMP:  57; 6HR MAX TEMP:  59; 6HR PCP: TRACE;

WISC RAPIDS    CLOUDY    60  52  74 NE8       30.17F
6HR MIN TEMP:  60; 6HR MAX TEMP:  62;

CAMP DOUGLAS   CLOUDY    57  55  94 NE6       30.14F
6HR MIN TEMP:  57; 6HR MAX TEMP:  60; 6HR PCP:  0.02;

$$

WIZ011>013-019>022-031-037>040-048>050-010700-
NORTHEAST WISCONSIN

CITY           SKY/WX    TMP DP  RH WIND       PRES   REMARKS
ANTIGO         CLOUDY    55  52  87 E7        30.21S
6HR MIN TEMP:  54; 6HR MAX TEMP:  60;

SHAWANO        CLOUDY    61  55  79 NE8       30.17F
6HR MIN TEMP:  61; 6HR MAX TEMP:  64;

OCONTO         NOT AVBL
STURGEON BAY   CLOUDY    61  55  81 E8        30.18F
6HR MIN TEMP:  61; 6HR MAX TEMP:  63; 6HR PCP: TRACE;

GREEN BAY      CLOUDY    61  58  90 E9        30.15F
6HR MIN TEMP:  61; 6HR MAX TEMP:  63; 6HR PCP:  0.02;

MANITOWOC      LGT RAIN  60  57  89 NE9       30.14F
6HR MIN TEMP:  60; 6HR MAX TEMP:  62;

APPLETON       CLOUDY    59  59 100 NE13G18   30.13F
CLINTONVILLE   CLOUDY    59  52  77 NE7       30.16F
OSHKOSH        LGT RAIN  61  58  90 NE9       30.12F
6HR MIN TEMP:  59; 6HR MAX TEMP:  61; 6HR PCP:  0.09;

$$

WIZ032>034-041-042-053>061-010700-
SOUTHWEST WISCONSIN

CITY           SKY/WX    TMP DP  RH WIND       PRES   REMARKS
LA CROSSE      CLOUDY    63  56  78 E6        30.15F
6HR MIN TEMP:  63; 6HR MAX TEMP:  65;

SPARTA         CLOUDY    56  56 100 CALM      30.16F
6HR MIN TEMP:  56; 6HR MAX TEMP:  61;

VIROQUA        CLOUDY    57  57  99 NE5       30.15F
6HR MIN TEMP:  56; 6HR MAX TEMP:  59;

BOSCOBEL       CLOUDY    60  58  92 CALM      30.13F FOG
6HR MIN TEMP:  59; 6HR MAX TEMP:  62; 6HR PCP:  0.02;

PRAIRIE DU CHI CLOUDY    60  56  85 NE5       30.13R
6HR MIN TEMP:  60; 6HR MAX TEMP:  62;

PLATTEVILLE    CLOUDY    59  59 100 N7        30.12S
6HR MIN TEMP:  59; 6HR MAX TEMP:  59;

$$

WIZ056-057-062-063-064-067-068-010700-
SOUTH CENTRAL WISCONSIN

CITY           SKY/WX    TMP DP  RH WIND       PRES   REMARKS
REEDSBURG      NOT AVBL
BARABOO/DELLS  CLOUDY    57  56  95 NE8       30.12F
6HR MIN TEMP:  57; 6HR MAX TEMP:  58; 6HR PCP:  0.03;

LONE ROCK      CLOUDY    60  57  89 NE7       30.12F
6HR MIN TEMP:  60; 6HR MAX TEMP:  60; 6HR PCP:  0.01;

MINERAL POINT  CLOUDY    59  59 100 N6        30.12S
MADISON        CLOUDY    59  58  96 NE6       30.10F
6HR MIN TEMP:  59; 6HR MAX TEMP:  60; 6HR PCP:  0.09;

MIDDLETON      CLOUDY    60  60 100 NE7       30.11F
6HR MIN TEMP:  60; 6HR MAX TEMP:  61; 6HR PCP:  0.10;

WATERTOWN      LGT RAIN  59  59 100 N5        30.09F
6HR MIN TEMP:  58; 6HR MAX TEMP:  59; 6HR PCP:  0.04;

MONROE         DRIZZLE   57  57 100 N8        30.10S
JANESVILLE     LGT RAIN  61  59  94 N6        30.08S
$$

WIZ051-052-058>065-066-070>072-010700-
SOUTHEAST WISCONSIN

CITY           SKY/WX    TMP DP  RH WIND       PRES   REMARKS
MILWAUKEE      LGT RAIN  62  60  93 NE7       30.08F
6HR MIN TEMP:  61; 6HR MAX TEMP:  62; 6HR PCP:  0.38;

WAUKESHA       HVY RAIN  57  55  94 NE8       30.10S
MILWAUKEE/TIMM HVY RAIN  59  55  88 NE8       30.09F
RACINE         CLOUDY    62  59  90 E13       30.08F
6HR MIN TEMP:  61; 6HR MAX TEMP:  63; 6HR PCP:  0.08;

BURLINGTON     DRIZZLE   58  58  98 CALM      30.07F
6HR MIN TEMP:  58; 6HR MAX TEMP:  58;

KENOSHA        CLOUDY    62  59  90 E9        30.07F
6HR MIN TEMP:  61; 6HR MAX TEMP:  62; 6HR PCP:  0.03;

FOND DU LAC    LGT RAIN  61  59  93 NE8       30.12F
6HR MIN TEMP:  60; 6HR MAX TEMP:  61; 6HR PCP:  0.09;

SHEBOYGAN      RAIN      60  57  89 NE16      30.12F
6HR MIN TEMP:  60; 6HR MAX TEMP:  61; 6HR PCP:  0.33;

WEST BEND      RAIN      68  68 100 E12G20    30.10F
JUNEAU         RAIN      58  57  97 N5        30.12S
6HR MIN TEMP:  58; 6HR MAX TEMP:  60; 6HR PCP:  0.10;

$$

LSZ147-162-010700-
LAKE SUPERIOR

STATION/POSITION TIME  TEMP    WIND        PRES    WAVE
                       AIR SEA DIR/SP/G            HT/PER
                 (UTC) (F)     (DEG/KT/KT) (MB)    (FT/S)
W MID LAKE BUOY  0550   56 55   60/  8/ 10 1024.8F   2/ 5
DEVILS ISLAND    0600   53      40/ 11/ 11 1025.3F
SAXON HARBOR     0500   55     200/  3/  3 1024.4F
$$

LMZ867-665-643>646-010700-
LAKE MICHIGAN

STATION/POSITION TIME  TEMP    WIND        PRES    WAVE
                       AIR SEA DIR/SP/G            HT/PER
                 (UTC) (F)     (DEG/KT/KT) (MB)    (FT/S)
CHAMBERS ISLAND  0500   63      50/  9/ 14 1022.4F
S GREEN BAY BUOY 0500   63 62   90/ 16/ 19 1021.2
N MID LAKE BUOY  0550   62 64  100/ 17/ 21 1021.7F   5/ 5
NORTHPORT PIER   0C1F1C2F2C3F3C4F4C5F5C6F6C7F7C8M1C9M2Ca!



USA.gov is the U.S. government's official web portal to all federal, state and local government web resources and services.